Tracking 27079 objects as of 23-Mar-2023
HD Live streaming from Space Station
objects crossing your sky now

CSO-1

Track CSO-1 now!
10-day predictions


NORAD ID: 43866
Int'l Code: 2018-106A
Perigee: 803.8 km
Apogee: 815.9 km
Inclination: 98.6 °
Period: 100.9 minutes
Semi major axis: 7180 km
RCS: Unknown
Launch date: December 19, 2018
Source: France (FR)
Launch site: FRENCH GUIANA (FRGUI)
Your satellite tracking list
Your tracking list is empty




NASA's NSSDC Master Catalog

Two Line Element Set (TLE):
1 43866U 18106A   22282.14004212 0.00000000  00000-0  00000-0 0    06
2 43866  98.6116 220.2575 0008464 193.0704 167.0624 14.26714856    09
Source of the keplerian elements: McCants